Location: L�Ave Maria
(50.7161°N, 1.5911°E)
Time: 23:17:28
(UTC+00:00)

IGS 5A - Pass Details

Date: 10 July 2020
Orbit: 582 x 589 km, 97.6° (Epoch: 27 July)

Event Time Altitude Azimuth Distance (km) Brightness Sun altitude
Exits shadow 21:09:59 - 177° (S) 2,314 6.0 -8.2°
Reaches altitude 10° 21:10:59 10° 180° (S) 1,909 5.6 -8.3°
Maximum altitude 21:15:04 58° 259° (W) 692 4.0 -8.7°
Drops below altitude 10° 21:19:11 10° 339° (NNW) 1,920 7.5 -9.1°
Sets 21:21:23 0° 344° (NNW) 2,825 8.5 -9.3°
